SUPERBIRD-B3

Last updated on Thu Jul 03 2025 00:02:47 GMT+0000 (Coordinated Universal Time)

1 43271U 18033A 25183.47105582 -.00000085 00000+0 00000+0 0 9995 2 43271 0.0189 66.4723 0001024 30.7445 155.0927 1.00271428 26557
UTC large
Height (km)
Speed (km/s)
/
Latitude / Longitude
Inclination (degrees)
Orbital Period (minutes)
Azimuth
Elevation
Range (km)
Doppler Factor

Next 0 passes for location: London (51.5072 / 0.1276)

Sorry there are no passes over London.